パンスターズ彗星

C/2017 T2 ( PanSTARRS )

English version
Home page
Updated on October 22, 2018

---------------------------------------------------------------------

・ プロフィール

発見日 2017年10月2日
発見光度 19.9等
発見者 Pan-STARRS 1 telescope (Haleakala)

・ 写真集

・ 軌道要素

Epoch 2020 Apr. 21.0 TT = JDT 2458960.5
T 2020 May 4.95999 TT                                   MPCW
q   1.6151310            (2000.0)            P               Q
z  +0.0002290      Peri.   92.99433     -0.50994502     -0.40635900
 +/-0.0000056      Node    64.37735     -0.16278229     -0.81987447
e   0.9996301      Incl.   57.23142     +0.84466444     -0.40333388
From 182 observations 2017 Sept. 15-2018 Sept. 19, mean residual 0".3.

・ 星図

・ 光度変化

        m1 = 4.5 + 5 logΔ + 10.0 log r

---------------------------------------------------------------------

軌道要素はM.P.E.C. 2018-S50に掲載されたものです。
星図はステラナビゲータ Ver.10 (アストロアーツ) で作成したものです。
光度グラフはComet for Windowsで作成したものです。

---------------------------------------------------------------------

Copyright(C) Seiichi Yoshida (comet@aerith.net). All rights reserved.